Location: Murdochville
(48.9591°N, 65.4950°W)
Time: 22:04:31
(UTC-04:00)

Envisat - Pass Details

Date: 19 April 2026
Orbit: 761 x 762 km, 98.4° (Epoch: 15 May)

Event Time Altitude Azimuth Distance (km) Brightness Sun altitude
Rises 01:27:51 0° 32° (NNE) 3,234 7.4 -28.1°
Reaches altitude 10° 01:31:49 10° 63° (ENE) 2,300 6.0 -27.9°
Maximum altitude 01:33:42 12° 85° (E) 2,161 5.6 -27.8°
Drops below altitude 10° 01:35:35 10° 108° (ESE) 2,294 5.5 -27.7°
Enters shadow 01:36:02 - 112° (ESE) 2,363 5.5 -27.6°
